Вернуться в каталог

FENGYUN 1C DEB

АктивенSSO
NORAD 30465·DEBRIS·🇨🇳 China

Запущен May 10, 1999 с Taiyuan Satellite Launch Center

Loading…

Ближайшие Пролёты (ближайшие 24 часа)

TLE

СвежийSource: Space-Track

Эпоха: Sep 14, 2026, 05:47 UTC

1 30465U 99025AGC 26257.24149449  .00002831  00000-0  98435-3 0  9998
2 30465  98.8268 356.6250 0015568 294.2847  94.7566 14.36215825 13085

Отслеживайте FENGYUN 1C DEB в реальном времени с AllMySat

Download on the App Store